Temperature
29 30 30 30 30 30 30 31 31 31 31 31 30 30 28 26 25 24 22 22 21 21 20 20 20 19 19 19 19 18 18 18 17 17 17 17 17 17 16 16 15 15 15 15
28 29 29 29 30 30 30 31 31 31 31 31 29 28 26 25 25 24 23 22 21 20 20 20 20 19 19 19 18 18 18 18 17 17 17 16 16 16 16 15 15 15 15 15
28 28 28 28 29 30 30 30 31 30 31 30 29 27 26 24 24 23 22 21 21 20 20 20 20 19 19 19 18 18 18 17 17 16 16 16 16 15 15 15 15 15 14 14
28 27 26 29 30 30 30 30 30 30 30 29 28 26 25 24 24 23 22 21 21 20 20 19 19 19 19 18 18 18 17 17 16 16 16 16 15 15 15 15 14 14 14 14
27 27 27 28 28 29 29 29 29 29 29 28 26 26 25 23 23 23 22 21 21 20 20 19 19 19 19 18 18 17 17 16 16 16 16 15 15 15 15 14 14 13 13 13
26 26 26 28 28 27 28 28 27 27 27 26 26 28 27 23 22 22 21 20 20 20 19 19 19 19 18 18 17 17 17 16 16 16 15 15 15 15 14 14 13 13 13 13
26 26 27 27 26 26 27 27 25 25 25 24 26 26 24 22 21 21 20 20 20 19 19 19 19 18 18 18 17 17 16 16 16 16 15 15 15 14 14 13 13 13 13 12
26 26 26 24 25 26 25 23 23 23 23 23 23 22 21 21 20 20 20 19 19 19 19 19 18 18 18 18 17 17 16 16 15 15 15 14 14 14 13 13 13 12 12 12
25 25 22 22 22 21 20 21 21 22 22 21 21 21 20 20 20 19 19 19 19 19 18 18 18 18 17 17 17 17 16 16 15 15 14 14 14 13 13 13 12 12 11 11
22 22 21 20 20 19 19 20 20 20 20 20 20 20 20 19 19 19 18 18 18 18 18 18 18 17 17 17 17 17 16 15 15 15 14 14 13 13 12 12 12 11 11 11
21 21 20 19 19 19 19 19 19 20 20 20 20 19 19 19 18 18 18 18 18 18 18 18 18 17 17 17 16 16 16 15 14 14 14 13 13 13 12 12 12 11 11 11
21 20 20 19 18 18 19 19 19 19 19 19 19 18 18 18 18 18 18 18 18 18 17 17 17 17 17 16 16 16 15 15 14 14 13 13 13 12 12 12 12 11 11 11
18 18 18 17 17 17 18 18 18 18 18 18 18 18 18 18 18 18 18 18 17 17 17 17 17 17 17 16 16 15 15 14 14 13 13 12 12 12 12 11 11 11 11 10
16 16 17 17 17 17 17 17 17 17 17 17 17 17 17 17 17 17 17 17 17 17 16 16 16 17 16 16 15 15 14 14 14 13 13 12 12 12 11 11 10 10 10 10
15 16 16 16 16 16 16 17 17 17 17 17 17 17 17 17 17 16 16 16 16 16 16 16 16 16 16 15 15 14 14 13 13 13 12 12 12 11 11 11 11 10 10 10
15 15 15 15 16 16 16 17 17 17 17 16 16 16 16 16 16 16 16 16 16 16 16 16 15 15 15 14 14 14 14 13 13 12 12 12 11 11 11 11 11 10 10 10
15 15 15 15 15 16 16 16 16 16 16 16 16 16 15 15 15 15 15 15 15 15 15 15 15 15 15 14 14 14 13 13 13 12 12 12 11 11 11 11 11 10 10 10
15 15 15 15 15 15 15 15 15 15 15 15 15 15 15 15 15 15 14 15 15 15 15 15 15 15 14 14 14 13 13 13 12 12 12 12 11 11 11 11 10 10 10 9
14 14 14 14 14 14 14 15 15 15 15 15 15 14 14 14 14 14 14 14 14 14 15 15 15 14 14 14 14 13 13 12 12 12 12 12 11 11 11 11 10 10 10 10
13 13 13 13 13 13 14 14 14 14 14 14 14 14 14 14 14 14 14 14 14 14 14 14 14 14 14 14 13 13 13 12 12 12 12 11 11 11 11 10 10 10 10 10
13 13 13 13 13 13 13 13 13 13 14 14 14 13 13 13 13 13 13 14 14 13 14 14 13 13 13 13 13 12 12 12 12 12 11 11 11 11 11 10 10 10 10 10
12 12 12 12 12 12 12 13 13 13 13 13 13 13 13 13 13 13 13 13 13 13 13 13 13 13 13 13 12 12 12 12 12 12 11 11 11 11 11 10 10 10 10 10
11 11 11 11 12 12 12 12 12 12 12 12 12 12 13 13 13 13 13 13 13 13 13 13 13 12 12 12 12 12 12 11 11 11 11 11 11 11 11 10 10 10 10 10
10 10 11 11 11 11 11 11 11 12 12 12 12 12 12 12 12 12 12 12 12 12 12 12 12 12 12 11 11 11 11 11 11 11 11 11 11 10 10 10 10 10 10 9
10 10 10 10 10 11 11 11 11 11 11 11 12 12 11 11 12 12 12 12 12 12 12 12 11 11 11 11 11 11 11 11 11 11 11 10 10 10 10 10 10 10 10 9
10 10 10 10 10 10 10 10 11 11 11 11 11 11 11 11 11 11 11 11 11 11 11 11 11 10 10 10 10 10 10 10 10 10 10 10 10 10 10 10 9 9 9 9
9 9 9 10 10 10 10 10 10 10 10 10 11 10 11 11 11 11 11 11 10 10 10 10 10 10 10 10 10 10 10 10 10 10 10 10 10 10 9 9 9 9 9 9
Wind_Speed
11 7 11 15 16 17 17 15 13 11 10 7 5 4 6 9 11 12 12 12 12 12 12 11 11 10 9 9 9 9 8 8 7 7 6 6 6 6 6 6 6 6 6 6
12 10 11 13 15 16 16 14 13 11 9 4 3 4 7 10 12 13 13 13 13 13 12 12 11 11 10 9 9 9 8 8 7 7 6 6 6 7 7 7 7 7 7 7
13 12 12 15 15 16 15 13 13 13 8 4 4 6 8 10 12 12 13 13 13 13 12 12 11 11 11 10 10 9 9 8 8 7 7 7 7 7 7 7 7 7 7 8
11 11 15 9 6 11 13 12 11 8 4 4 4 4 5 7 10 11 12 13 13 13 13 12 12 12 11 11 10 10 9 8 8 7 7 7 7 7 7 7 7 7 7 7
11 15 13 7 6 8 11 10 7 8 5 3 3 6 5 5 8 10 11 12 12 12 13 13 13 12 12 11 10 10 9 9 8 7 7 7 7 7 7 7 7 7 7 7
11 14 15 9 7 5 7 9 3 4 5 4 6 7 5 6 7 9 10 10 11 12 13 13 13 12 12 11 10 10 9 9 8 8 8 8 7 7 7 7 7 7 7 7
14 13 9 3 5 7 10 5 2 1 3 5 5 2 3 8 8 9 10 11 12 12 12 12 12 12 11 11 10 9 9 9 8 8 8 8 8 7 7 7 7 7 7 7
13 14 9 3 5 5 0 3 1 1 1 3 2 3 6 8 9 10 11 12 12 11 11 11 11 11 11 10 10 10 10 9 8 8 8 8 8 8 7 7 7 7 6 6
5 3 4 3 2 3 2 1 1 1 1 2 4 5 7 8 9 10 11 11 11 11 11 10 10 10 11 10 11 11 10 9 9 8 7 8 8 8 7 6 5 5 5 5
2 2 3 3 3 3 2 2 2 1 1 3 5 6 7 8 9 9 10 10 10 11 11 10 10 9 9 11 11 11 10 10 9 9 8 7 6 6 5 5 5 4 4 5
3 2 3 3 2 2 2 2 2 3 3 4 6 6 7 7 8 8 9 9 9 9 10 10 10 9 9 10 11 11 10 9 9 8 8 7 5 3 3 3 2 2 4 4
2 2 2 2 1 1 2 2 3 3 4 4 5 5 6 6 7 8 9 9 9 9 10 10 10 9 9 9 10 11 10 9 8 8 7 7 7 6 10 7 8 8 8 4
1 0 0 1 1 1 1 2 2 3 4 4 4 4 5 5 6 7 7 8 9 9 9 9 10 10 9 9 9 9 9 9 8 8 8 7 8 8 7 5 6 6 5 5
1 1 1 1 1 1 1 2 3 3 4 4 3 4 5 5 6 6 7 7 8 8 8 9 9 9 9 9 9 9 9 8 8 7 7 7 7 7 7 8 7 5 4 4
2 2 2 1 0 1 1 2 3 3 3 3 3 3 4 5 5 5 6 7 8 8 8 8 8 8 8 9 10 10 9 8 7 7 7 7 7 7 7 7 7 7 7 6
2 2 2 2 1 1 1 1 2 2 2 2 2 2 3 4 5 5 5 7 8 8 8 8 8 8 9 9 10 9 7 8 8 8 7 7 7 7 7 7 6 6 6 6
5 4 4 3 2 2 2 1 1 1 1 1 1 2 3 4 4 5 5 6 6 6 7 8 8 9 9 10 9 8 8 9 9 8 8 7 7 7 7 7 7 6 5 4
5 5 5 3 3 2 2 1 0 0 0 0 1 2 3 4 4 4 4 5 5 6 6 7 8 9 9 9 8 7 8 9 9 8 7 7 7 7 7 6 7 7 6 6
5 5 5 4 3 3 3 2 2 2 1 1 2 2 2 3 3 4 5 5 6 6 6 6 8 9 9 9 8 7 8 9 9 8 7 8 8 7 7 7 7 6 6 6
5 5 4 4 3 3 3 3 2 2 2 1 2 2 3 3 3 4 5 5 4 3 5 7 8 8 8 9 8 7 8 9 9 8 8 8 8 7 7 7 7 6 6 6
4 5 4 4 3 3 3 3 2 3 2 2 3 3 3 3 4 4 4 4 3 3 5 7 6 6 7 7 8 7 8 8 8 8 8 8 8 7 7 7 7 7 6 6
3 3 3 3 2 2 2 2 3 3 3 3 3 3 3 4 4 4 3 3 3 4 5 5 5 6 7 8 7 7 7 8 7 7 8 8 8 8 7 7 7 6 6 6
2 1 1 1 1 2 2 2 3 3 3 3 3 4 4 4 4 4 4 3 4 5 4 4 6 9 8 7 6 7 8 8 7 7 7 7 7 7 7 7 6 6 6 6
1 1 1 2 2 2 2 3 2 2 3 3 3 4 4 4 3 3 2 4 4 5 4 6 9 9 8 6 6 6 6 7 7 7 7 6 6 6 6 6 6 6 6 6
2 2 2 2 2 2 2 3 3 3 3 3 3 3 3 3 3 3 3 5 6 6 5 7 9 8 7 6 6 6 5 5 6 6 6 6 6 6 6 6 6 5 5 5
2 2 2 2 2 2 2 2 3 3 3 3 2 2 2 2 3 4 4 6 7 6 6 6 6 7 6 6 6 6 6 6 6 5 5 5 5 5 5 5 6 5 5 4
2 2 2 2 2 2 2 2 2 2 2 2 2 2 2 3 4 4 5 5 6 5 5 5 6 6 5 6 6 6 6 6 6 5 5 5 5 5 5 5 5 5 4 4
Wind_Direction
242 239 212 211 208 210 221 233 239 236 241 239 216 198 177 170 166 163 164 164 163 161 155 154 152 152 151 148 146 143 139 131 126 121 117 113 106 99 94 89 86 81 78 73
223 222 221 222 216 213 221 230 237 244 239 227 188 170 173 175 174 173 172 169 166 162 159 160 158 158 156 153 148 145 140 132 128 127 120 113 107 102 96 89 85 83 80 77
218 211 216 221 218 214 217 224 231 235 236 192 191 191 190 184 183 181 175 171 168 164 163 163 161 158 156 153 149 145 138 134 134 132 123 115 112 106 100 96 92 87 84 82
216 203 222 218 208 218 219 222 229 241 233 208 210 191 182 186 184 179 174 170 167 164 161 160 156 154 151 149 148 144 140 139 137 133 127 122 116 107 101 98 96 92 88 86
217 215 218 194 185 204 211 219 226 234 231 203 166 170 168 176 183 177 171 166 163 162 158 154 154 153 151 150 148 147 145 145 142 137 133 130 123 117 112 108 103 99 91 87
219 224 222 201 173 192 214 215 190 220 217 198 186 212 180 161 165 159 156 156 155 152 151 152 153 153 154 152 152 150 147 144 143 140 138 133 128 123 119 115 112 107 97 90
219 224 223 153 154 180 213 203 112 203 212 206 212 275 130 152 154 151 150 150 151 150 151 152 153 156 157 154 152 147 143 141 141 137 135 134 131 127 128 125 117 111 107 100
218 225 213 113 173 202 1 34 60 241 222 206 189 124 135 144 146 147 147 148 152 151 149 150 155 160 159 154 147 143 142 141 141 141 141 138 135 132 132 132 130 128 125 119
225 220 73 94 93 39 13 351 338 310 292 183 157 144 140 141 142 144 145 148 151 149 146 148 157 164 160 152 148 147 147 146 144 143 140 141 142 141 144 152 150 146 145 136
203 138 100 103 83 45 17 1 358 7 130 155 152 144 140 139 140 143 145 147 149 150 151 153 157 159 154 151 152 152 150 147 147 147 144 142 147 151 153 155 155 155 149 139
207 157 135 131 64 37 37 38 56 81 112 138 146 147 144 142 141 142 143 146 151 154 155 154 152 150 150 153 155 154 152 152 153 152 147 143 131 102 126 102 91 140 149 147
216 159 206 148 49 45 69 65 70 87 99 114 134 142 144 141 140 144 146 150 155 157 156 153 150 149 152 158 161 159 157 160 160 156 153 151 140 120 57 65 66 51 40 53
271 314 313 143 58 36 56 60 71 93 106 115 125 138 140 140 140 142 146 152 156 157 155 154 152 151 155 160 163 166 164 164 162 159 161 161 157 154 144 109 80 73 68 66
173 145 178 175 12 40 56 76 89 94 103 111 125 133 136 137 138 144 149 152 152 151 151 153 154 155 158 161 164 165 165 161 164 163 165 164 165 165 163 159 157 147 128 125
228 251 252 263 237 98 89 109 112 107 104 108 117 129 140 142 143 146 147 149 148 149 152 153 155 157 159 164 167 169 169 169 168 165 167 168 169 168 165 164 161 156 154 154
226 217 214 213 195 182 158 138 129 115 106 106 116 130 139 141 142 144 151 158 160 160 159 160 161 162 164 166 168 171 171 160 167 171 170 170 171 168 166 168 169 168 170 168
215 214 218 225 218 227 223 187 154 155 144 132 131 141 151 154 155 157 163 165 164 162 165 166 165 165 168 171 175 174 170 167 174 179 176 175 172 170 170 174 175 175 174 158
228 224 227 233 234 233 237 225 236 239 267 264 183 168 178 187 189 183 175 166 164 166 169 169 166 166 170 176 180 176 173 173 180 181 174 174 170 171 175 177 178 177 170 165
216 219 220 224 236 250 249 241 257 271 272 241 206 194 196 203 193 185 184 186 183 181 179 171 162 172 173 173 174 179 177 176 176 174 171 163 174 178 179 181 178 177 178 177
202 203 206 219 228 241 248 246 247 255 253 235 222 204 197 192 185 185 191 200 204 196 172 167 176 180 174 174 182 181 180 178 176 175 175 177 181 181 183 182 178 181 188 189
200 196 202 217 227 238 246 247 240 238 241 231 222 217 209 204 198 190 194 200 183 165 161 159 177 176 176 170 188 185 181 182 180 179 180 181 181 183 184 184 187 190 195 196
203 200 205 210 218 245 257 251 231 224 227 221 220 219 210 206 201 195 199 203 169 154 169 175 176 155 157 164 182 180 178 180 182 182 183 185 186 188 188 189 190 193 196 198
223 212 215 224 244 256 263 254 231 218 219 222 220 221 221 220 217 207 198 183 172 173 180 166 138 136 154 174 178 181 178 180 183 185 185 186 188 186 183 185 189 191 194 198
241 244 245 245 247 246 245 252 250 227 220 226 224 225 226 212 212 216 182 149 156 164 163 131 136 151 175 180 179 177 175 177 179 182 179 175 175 177 178 181 185 190 195 203
236 237 234 235 245 247 238 236 231 224 220 215 209 210 216 208 199 183 165 155 153 157 146 143 151 169 183 172 166 168 170 170 170 172 173 174 177 178 180 185 187 189 192 196
254 251 256 260 266 260 243 229 221 211 202 200 199 187 176 169 164 163 158 154 152 151 148 151 159 175 174 165 161 161 159 157 160 169 166 170 175 174 176 181 188 192 189 187
236 238 235 237 247 256 247 224 214 207 194 179 174 174 171 168 156 151 150 150 152 153 150 152 159 164 160 157 155 159 159 157 159 158 160 168 172 172 171 180 184 180 184 186
Height
1486 1483 1484 1489 1492 1494 1496 1494 1499 1498 1497 1494 1497 1501 1505 1509 1512 1516 1519 1522 1525 1528 1531 1534 1537 1539 1541 1544 1545 1547 1548 1550 1551 1551 1551 1552 1552 1551 1551 1551 1552 1552 1552 1551
1492 1487 1487 1489 1487 1490 1492 1491 1492 1493 1494 1492 1497 1501 1505 1508 1510 1514 1517 1520 1523 1526 1529 1532 1535 1538 1540 1542 1544 1546 1548 1549 1550 1551 1552 1552 1552 1552 1552 1551 1552 1552 1552 1552
1492 1487 1490 1495 1486 1487 1489 1488 1489 1493 1491 1493 1497 1501 1503 1506 1508 1511 1514 1518 1521 1524 1527 1530 1533 1536 1539 1542 1544 1545 1547 1549 1550 1551 1552 1552 1553 1552 1552 1552 1552 1552 1552 1552
1488 1495 1507 1486 1480 1481 1485 1486 1486 1487 1489 1493 1496 1500 1502 1505 1507 1510 1513 1516 1519 1522 1525 1529 1532 1535 1537 1540 1543 1545 1546 1548 1550 1551 1552 1552 1552 1553 1553 1553 1553 1553 1553 1553
1487 1493 1491 1485 1483 1483 1486 1488 1487 1488 1491 1494 1497 1499 1501 1504 1506 1508 1511 1514 1517 1521 1524 1527 1530 1533 1536 1539 1541 1544 1546 1548 1549 1550 1551 1552 1552 1552 1553 1553 1553 1554 1554 1554
1487 1493 1495 1483 1481 1485 1487 1491 1489 1490 1492 1494 1496 1493 1496 1502 1505 1507 1510 1513 1517 1520 1523 1526 1529 1532 1535 1538 1540 1543 1545 1547 1548 1549 1550 1551 1552 1552 1553 1554 1554 1554 1554 1555
1486 1488 1479 1480 1483 1487 1494 1491 1490 1491 1493 1494 1495 1495 1498 1500 1504 1506 1509 1512 1515 1519 1522 1525 1528 1531 1535 1537 1539 1542 1543 1545 1547 1547 1549 1550 1551 1552 1553 1554 1554 1555 1555 1555
1482 1487 1485 1484 1484 1485 1488 1491 1491 1492 1493 1494 1496 1497 1498 1500 1502 1505 1508 1511 1514 1518 1521 1524 1527 1530 1533 1535 1538 1540 1542 1544 1546 1547 1548 1549 1550 1551 1553 1554 1555 1555 1556 1556
1478 1482 1486 1487 1488 1490 1491 1491 1492 1492 1493 1494 1496 1497 1498 1500 1502 1505 1508 1511 1514 1517 1519 1523 1526 1529 1532 1534 1536 1538 1540 1542 1544 1545 1547 1548 1549 1551 1552 1553 1555 1556 1557 1557
1483 1484 1488 1489 1490 1491 1492 1492 1492 1492 1493 1494 1496 1497 1499 1500 1502 1505 1507 1510 1512 1515 1518 1521 1525 1528 1530 1532 1535 1537 1539 1541 1542 1544 1545 1547 1549 1551 1552 1553 1555 1556 1557 1558
1484 1487 1489 1490 1491 1492 1492 1492 1492 1492 1493 1494 1496 1498 1499 1500 1503 1505 1507 1509 1512 1515 1518 1520 1523 1526 1528 1531 1533 1535 1537 1539 1541 1543 1544 1545 1547 1549 1551 1552 1554 1555 1556 1557
1483 1488 1488 1491 1492 1492 1492 1492 1493 1493 1494 1495 1496 1498 1499 1501 1502 1504 1506 1508 1511 1513 1516 1519 1521 1523 1527 1529 1532 1534 1536 1537 1540 1541 1543 1544 1545 1547 1548 1550 1552 1553 1554 1555
1489 1490 1491 1491 1492 1492 1492 1492 1493 1493 1494 1495 1497 1498 1499 1501 1502 1504 1506 1507 1510 1512 1514 1517 1519 1521 1524 1527 1530 1532 1534 1536 1538 1540 1541 1543 1544 1546 1547 1549 1551 1552 1553 1554
1489 1490 1491 1491 1492 1492 1492 1493 1493 1494 1495 1495 1496 1497 1499 1500 1502 1503 1505 1507 1509 1510 1512 1515 1517 1519 1521 1524 1527 1530 1532 1534 1536 1538 1540 1541 1543 1545 1547 1548 1549 1550 1552 1552
1490 1490 1491 1492 1492 1492 1492 1493 1493 1494 1495 1496 1496 1497 1498 1500 1501 1502 1504 1506 1507 1509 1511 1513 1515 1517 1520 1523 1525 1528 1530 1532 1534 1536 1538 1539 1541 1544 1545 1547 1548 1550 1550 1551
1488 1489 1491 1491 1491 1492 1492 1493 1494 1494 1495 1495 1496 1497 1498 1499 1500 1501 1503 1504 1506 1508 1509 1512 1514 1516 1518 1521 1523 1525 1528 1530 1532 1534 1536 1538 1540 1541 1543 1545 1547 1548 1549 1550
1488 1489 1490 1491 1491 1492 1492 1493 1494 1494 1495 1495 1496 1496 1497 1498 1499 1500 1502 1503 1505 1506 1508 1510 1512 1514 1516 1518 1521 1523 1525 1527 1529 1532 1534 1536 1537 1539 1541 1543 1545 1546 1547 1548
1486 1487 1488 1489 1490 1491 1491 1492 1493 1493 1494 1494 1495 1495 1496 1497 1498 1499 1501 1502 1503 1504 1506 1508 1510 1511 1513 1516 1519 1521 1523 1525 1527 1530 1532 1534 1535 1537 1539 1541 1542 1544 1545 1546
1483 1485 1486 1487 1488 1489 1490 1491 1492 1492 1492 1493 1494 1494 1495 1496 1497 1498 1499 1500 1501 1502 1504 1506 1507 1509 1511 1513 1516 1518 1520 1523 1525 1528 1530 1531 1533 1535 1537 1538 1540 1542 1544 1545
1481 1483 1484 1485 1486 1487 1488 1489 1489 1490 1491 1491 1492 1493 1494 1494 1495 1496 1497 1498 1499 1500 1501 1502 1504 1506 1509 1511 1514 1516 1519 1521 1523 1525 1527 1529 1531 1532 1534 1536 1538 1540 1542 1543
1479 1481 1482 1483 1484 1485 1486 1486 1487 1488 1488 1489 1490 1491 1492 1493 1494 1494 1495 1496 1497 1498 1498 1500 1502 1504 1506 1508 1511 1514 1516 1518 1520 1523 1525 1526 1528 1530 1532 1534 1536 1538 1540 1541
1477 1478 1480 1481 1482 1483 1483 1484 1484 1485 1486 1487 1488 1489 1490 1491 1492 1492 1493 1494 1495 1496 1497 1498 1500 1502 1504 1506 1509 1511 1513 1515 1518 1520 1522 1524 1526 1528 1530 1532 1533 1535 1537 1539
1476 1477 1478 1479 1479 1480 1481 1481 1482 1483 1483 1484 1485 1487 1488 1489 1490 1491 1490 1491 1492 1494 1495 1497 1498 1500 1502 1505 1507 1509 1511 1513 1516 1518 1520 1522 1524 1526 1527 1529 1531 1533 1534 1536
1474 1474 1475 1476 1477 1477 1478 1478 1479 1480 1481 1482 1483 1484 1485 1486 1487 1488 1489 1489 1490 1492 1493 1495 1496 1499 1501 1503 1505 1508 1510 1512 1514 1516 1518 1520 1521 1523 1525 1527 1528 1530 1532 1533
1472 1472 1473 1474 1475 1475 1475 1475 1476 1477 1479 1480 1481 1482 1483 1484 1485 1486 1486 1487 1488 1490 1491 1493 1495 1497 1500 1502 1503 1506 1508 1510 1512 1514 1516 1518 1520 1521 1523 1525 1526 1528 1529 1530
1470 1471 1471 1471 1472 1473 1473 1474 1474 1475 1477 1478 1479 1480 1481 1481 1482 1483 1484 1486 1487 1488 1490 1492 1494 1496 1498 1500 1502 1504 1506 1508 1510 1512 1514 1516 1518 1519 1521 1523 1524 1526 1527 1528
1468 1468 1469 1469 1470 1471 1471 1472 1473 1474 1475 1476 1476 1477 1478 1480 1481 1482 1483 1484 1486 1488 1489 1491 1493 1495 1497 1499 1501 1503 1505 1507 1509 1511 1512 1514 1516 1517 1519 1521 1522 1523 1524 1525